Regional Weather Roundup
Issued by NWS

Home | Current Version | Previous Version | Text Only | Print | Product List | Glossary On
Versions: 1 2 3 4 5 6 7 8 9 10 11 12 13 14 15 16 17 18 19 20 21 22 23 24 25 26 27 28 29 30 31 32 33 34 35 36 37 38 39 40 41 42 43 44 45 46 47 48 49 50
000
ASUS43 KTOP 161159
RWRKS

WEATHER ROUNDUP FOR KANSAS
NATIONAL WEATHER SERVICE GOODLAND KS
600 AM CST MON JAN 16 2017

NOTE:  "FAIR" INDICATES FEW OR NO CLOUDS BELOW 12,000 FEET WITH NO
SIGNIFICANT WEATHER AND/OR OBSTRUCTIONS TO VISIBILITY.

KSZ001>006-013>018-027>032-041>047-161300-
NORTHWEST KANSAS

CITY           SKY/WX    TMP DP  RH WIND       PRES   REMARKS
GOODLAND       FRZ RAIN  31  30  96 N18       29.86F WCI  19
6HR MIN TEMP:  29; 6HR MAX TEMP:  31; 6HR PCP:  0.12;

HILL CITY      FRZ RAIN  32  32 100 N12       29.87F FOG     WCI  23
6HR MIN TEMP:  30; 6HR MAX TEMP:  32; 6HR PCP:  0.41;

RUSSELL        FRZ RAIN  32  31  96 N10       29.83S WCI  24
6HR MIN TEMP:  31; 6HR MAX TEMP:  32;

$$

KSZ061>065-074>080-084>089-161300-
SOUTHWEST KANSAS

CITY           SKY/WX    TMP DP  RH WIND       PRES   REMARKS
DODGE CITY     FRZ RAIN  32  31  96 N14       29.79F WCI  22
6HR MIN TEMP:  31; 6HR MAX TEMP:  32; 6HR PCP:  0.51;

ELKHART          N/A     29  23  78 NW6         N/A
GARDEN CITY    LGT SNOW  30  29  96 N13       29.81F VSB 1   WCI  20
6HR MIN TEMP:  30; 6HR MAX TEMP:  31; 6HR PCP:  0.33;

GREAT BEND     MIX PCPN  32  31  96 N10       29.84F WCI  24
LIBERAL        CLOUDY    32  27  80 MISG      29.80S
$$

KSZ066>073-081>083-090>101-161300-
SOUTHEAST KANSAS

CITY           SKY/WX    TMP DP  RH WIND       PRES   REMARKS
CHANUTE        CLOUDY    50  49  96 SE9       29.82F
6HR MIN TEMP:  40; 6HR MAX TEMP:  50; 6HR PCP:  0.57;

HUTCHINSON     LGT RAIN  33  32  96 NE7       29.79F FOG
6HR MIN TEMP:  33; 6HR MAX TEMP:  34; 6HR PCP:  0.58;

MEDICINE LODGE   N/A     32  31  96 N7        29.77F
NEWTON         LGT RAIN  38  38 100 E8        29.78F FOG
PARSONS        CLOUDY    54  52  93 SE7       29.82F
6HR MIN TEMP:  44; 6HR MAX TEMP:  54; 6HR PCP:  0.58;

WICHITA INTL   LGT RAIN  43  43 100 S3        29.78S FOG
6HR MIN TEMP:  36; 6HR MAX TEMP:  43; 6HR PCP:  0.78;

WICHITA JABRA  LGT RAIN  41  41 100 SE5       29.78S FOG
6HR MIN TEMP:  35; 6HR MAX TEMP:  41; 6HR PCP:  0.49;

WICHITA MCCONL LGT RAIN  43  43 100 S3        29.77S
WINFIELD       CLOUDY    44  44 100 S8        29.79R
6HR MIN TEMP:  43; 6HR MAX TEMP:  50; 6HR PCP:  0.35;

$$

KSZ007>012-019>026-033>040-048>060-102>105-161300-
NORTHEAST KANSAS

CITY           SKY/WX    TMP DP  RH WIND       PRES   REMARKS
CONCORDIA      MIX PCPN  32  32 100 NE13      29.87F FOG     WCI  22
6HR MIN TEMP:  31; 6HR MAX TEMP:  32; 6HR PCP:  0.43;

EMPORIA        LGT RAIN  38  38 100 E13       29.81F FOG     WCI  30
6HR MIN TEMP:  34; 6HR MAX TEMP:  38; 6HR PCP:  0.54;

LAWRENCE       LGT RAIN  34  34 100 NE9       29.91F FOG
6HR MIN TEMP:  33; 6HR MAX TEMP:  34; 6HR PCP:  0.40;

MANHATTAN      RAIN      34  32  92 NE15      29.86F WCI  24
6HR MIN TEMP:  33; 6HR MAX TEMP:  34; 6HR PCP:  0.38;

OLATHE IND     LGT RAIN  37  37 100 E12       29.90F WCI  29
6HR MIN TEMP:  33; 6HR MAX TEMP:  37; 6HR PCP:  0.54;

OLATHE EXE     LGT RAIN  36  36 100 E10       29.90F WCI  28
6HR MIN TEMP:  32; 6HR MAX TEMP:  36; 6HR PCP:  0.51;

SALINA           N/A    N/A N/A N/A MISG        N/A
TOPEKA BILLARD RAIN      35  32  88 NE10      29.89F FOG     WCI  27
6HR MIN TEMP:  33; 6HR MAX TEMP:  35; 6HR PCP:  0.34;

TOPEKA FORBES  RAIN      36  34  92 NE9       29.88F FOG
6HR MIN TEMP:  34; 6HR MAX TEMP:  36; 6HR PCP:  0.43;

$$




USA.gov is the U.S. government's official web portal to all federal, state and local government web resources and services.